Dallas/Ft Worth, TX

12:02 AM CST on February 18, 2018 (GMT -0600)
Dallas-Fort Worth International

Weather History for KDFW - March, 2014

Change the Weather History Date:

Monday, March 10, 2014

  Actual Average Record
Temperature  
Mean Temperature 60 °F 56 °F  
Max Temperature 78 °F 66 °F 99 °F (1911)
Min Temperature 41 °F 46 °F 15 °F (1948)
Degree Days  
Heating Degree Days 5 10  
Month to date heating degree days 175 109  
Since 1 July heating degree days 2348 2041  
Cooling Degree Days 0 1  
Month to date cooling degree days 0 8  
Year to date cooling degree days 0 15  
Growing Degree Days 10 (Base 50)    
Moisture  
Dew Point 43 °F    
Average Humidity 59    
Maximum Humidity 93    
Minimum Humidity 24    
Precipitation  
Precipitation 0.00 in 0.12 in 1.41 in (1959)
Month to date precipitation 0.10 1.14  
Year to date precipitation 0.84 5.93  
Snow  
Snow 0.00 in 0.00 in T in (1948)
Month to date snowfall 0.1 0.1  
Since 1 July snowfall 2.9 1.5  
Snow Depth 0.00 in    
Sea Level Pressure  
Sea Level Pressure 30.02 in    
Wind  
Wind Speed 10 mph (South)    
Max Wind Speed 20 mph    
Max Gust Speed 24 mph    
Visibility 8 miles    
Events      
T = Trace of Precipitation, MM = Missing Value Source: NWS Daily Summary

Daily Weather History Graph

Daily Weather History Graph

Search for Another Location

Airport or City:

Trip Planner

Search our weather history database for the weather conditions in past years. The results will help you decide how hot, cold, wet, or windy it might be!

Date:

Astronomy

Mar. 10, 2014 Rise Set
Actual Time 7:44 AM CDT 7:32 PM CDT
Civil Twilight 7:20 AM CDT 7:57 PM CDT
Nautical Twilight 6:51 AM CDT 8:25 PM CDT
Astronomical Twilight 6:22 AM CDT 8:54 PM CDT
Moon 2:29 PM CDT (3/10) 3:44 AM CDT (3/10)
Length of Visible Light 12h 36m
Length of Day
11h 47m
Waxing Gibbous, 70% of the Moon is Illuminated
Mar 10
Waxing Gibbous
Mar 16
Full
Mar 23
Last Quarter
Mar 30
New
Apr 7
First Quarter

Hourly Weather History & Observations

Time (CDT) Temp. Windchill Dew Point Humidity Pressure Visibility Wind Dir Wind Speed Gust Speed Precip Events Conditions
12:53 AM 46.9 °F - 39.0 °F 74% 30.17 in 10.0 mi South 8.1 mph - N/A   Clear
1:53 AM 46.0 °F 40.6 °F 39.0 °F 76% 30.17 in 9.0 mi South 11.5 mph - N/A   Clear
2:53 AM 46.0 °F 41.0 °F 39.9 °F 79% 30.15 in 7.0 mi SSW 10.4 mph - N/A   Clear
3:53 AM 46.0 °F 41.0 °F 41.0 °F 83% 30.13 in 7.0 mi SSW 10.4 mph - N/A   Clear
4:53 AM 46.0 °F 44.8 °F 41.0 °F 83% 30.12 in 6.0 mi South 3.5 mph - N/A   Haze
5:53 AM 44.1 °F - 39.9 °F 85% 30.12 in 4.0 mi Calm Calm - N/A   Clear
6:53 AM 41.0 °F 38.0 °F 39.0 °F 93% 30.12 in 6.0 mi SSE 4.6 mph - N/A   Clear
7:53 AM 41.0 °F 39.0 °F 37.9 °F 89% 30.11 in 4.0 mi ESE 3.5 mph - N/A   Partly Cloudy
8:53 AM 46.0 °F - 42.1 °F 86% 30.12 in 4.0 mi Calm Calm - N/A   Clear
9:53 AM 53.1 °F - 44.1 °F 71% 30.12 in 6.0 mi South 5.8 mph - N/A   Haze
10:53 AM 61.0 °F - 43.0 °F 52% 30.11 in 10.0 mi SW 9.2 mph - N/A   Partly Cloudy
11:53 AM 66.0 °F - 42.1 °F 42% 30.09 in 10.0 mi SSW 9.2 mph - N/A   Partly Cloudy
12:53 PM 72.0 °F - 41.0 °F 33% 30.05 in 10.0 mi South 8.1 mph - N/A   Partly Cloudy
1:53 PM 73.9 °F - 37.0 °F 26% 30.00 in 10.0 mi South 9.2 mph - N/A   Partly Cloudy
2:53 PM 75.9 °F - 37.9 °F 25% 29.95 in 10.0 mi South 16.1 mph 20.7 mph N/A   Partly Cloudy
3:53 PM 77.0 °F - 37.9 °F 24% 29.91 in 10.0 mi SSE 13.8 mph 20.7 mph N/A   Partly Cloudy
4:53 PM 77.0 °F - 39.9 °F 26% 29.88 in 10.0 mi South 12.7 mph - N/A   Partly Cloudy
5:53 PM 77.0 °F - 44.1 °F 31% 29.86 in 10.0 mi South 12.7 mph - N/A   Partly Cloudy
6:53 PM 73.9 °F - 45.0 °F 35% 29.86 in 10.0 mi South 16.1 mph - N/A   Partly Cloudy
7:53 PM 71.1 °F - 46.0 °F 41% 29.86 in 10.0 mi South 13.8 mph - N/A   Partly Cloudy
8:53 PM 69.1 °F - 50.0 °F 51% 29.87 in 10.0 mi South 15.0 mph - N/A   Partly Cloudy
9:53 PM 66.0 °F - 53.1 °F 63% 29.87 in 10.0 mi South 15.0 mph - N/A   Partly Cloudy
10:53 PM 64.9 °F - 54.0 °F 68% 29.86 in 10.0 mi South 15.0 mph - N/A   Partly Cloudy
11:53 PM 64.0 °F - 54.0 °F 70% 29.83 in 10.0 mi South 13.8 mph - N/A   Partly Cloudy